Погода в Зеленоборске

Россия / Республика Коми     64°28′46″N   55°17′44″E
темп.,
°C
ветер,
м/с
пор.,
м/с
влажн.,
%
обл.,
%
осадки,
мм/ч
давл.,
гПа
погр.,
м
11 мая, вт
вт1100:00+3зюз118657 0.0 102610
03:00+2юз22866 0.0 102728
06:00+6юз2568100 0.0 1027224
09:00+10юз3650100 0.0 1026723
12:00+11юз5950100 0.0 10251670
15:00+8юз4963100 0.0 1025838
18:00+7зюз3876100 0.0 1026435
21:00+7юз3782100 0.0 1026270
12 мая, ср
ср1200:00+7ююз2796100 1.4 1024256
03:00+8юз3994100 2.6 1023330
06:00+10юз4128754 0.0 1022395
09:00+17зюз5106497 0.0 1021868
12:00+18з5116142 0.0 10211238
15:00+19зсз51162100 0.4 10211531
18:00+16ссз3979100 0.2 1023941
21:00+12сз3890100 0.3 1024346
13 мая, чт
чт1300:00+9с368861 0.0 1026324
03:00+7с149095 0.0 1028132
06:00+9св116997 0.0 1028403
09:00+14ю22535 0.0 1027682
12:00+19ююз35505 0.0 10241065
15:00+23юз494170 0.0 10212228
18:00+22зюз38442 0.0 1019339
21:00+17юз311620 0.0 1018203
14 мая, пт
пт1400:00+15зюз412575 0.0 1017274
03:00+15зюз4126699 0.0 1017310
06:00+17зюз48621 0.0 1017441
09:00+18зюз3763100 0.0 1017529
12:00+23зсз484597 0.0 10151911
15:00+23з4944100 0.6 10142231
18:00+18ююз036999 1.3 1014151
21:00+14юз119061 5.5 101331
15 мая, сб
сб1500:00+14юз259258 0.6 1012158
03:00+13зюз3109193 0.8 1012400
06:00+16з488036 0.0 1012581
09:00+18з5769100 0.3 10121117
12:00+19зсз595963 1.1 10121483
15:00+20сз3746100 1.2 10131341
18:00+18с015899 0.0 101219
21:00+14св378495 0.0 1013262